Volver al catálogo

STARLINK-11729

ActivoComunicacionesVLEO
NORAD 64073·PAYLOAD·🇺🇸 United States

Lanzado May 21, 2025 desde Cape Canaveral Space Force Station

Loading…

Próximos Pases (próximas 24 horas)

TLE

ActualizadoSource: CelesTrak SupGP

Época: Sep 15, 2026, 03:09 UTC

1 64073C 25107K   26258.13173611 -.00100120  00000+0 -77729-3 0  2589
2 64073  43.0013  36.7958 0001660 265.9269 223.3438 15.70897239    10

Sigue STARLINK-11729 en tiempo real con AllMySat

Download on the App Store